CW4541 Weather Reports


time (UTC)temp
F
wind
direction
speed
knots
gust
knots
rain 1hr
in
rain 24hr
in
rain mn
in
humidity
%
barometer
mb
20260831060605 55 35 0.0 0.0 0.00 0.48 0.00 73 1022.5
20260831060110 55 35 0.0 0.0 0.00 0.48 0.00 72 1022.5
20260831050606 55 213 0.0 0.0 0.00 0.48 0.48 72 1022.5
20260831040606 56 192 0.0 0.0 0.00 0.48 0.48 67 1022.7
20260831040111 55 192 0.0 0.0 0.00 0.48 0.48 66 1022.7
20260831030606 59 192 0.0 0.0 0.00 0.48 0.48 55 1021.9
20260831030112 60 192 0.0 0.0 0.00 0.48 0.48 55 1021.7
20260831020607 63 188 0.0 5.2 0.00 0.48 0.48 46 1021.3
20260831020112 64 128 0.9 5.2 0.00 0.48 0.48 50 1021.1
20260831010606 67 274 0.9 2.6 0.00 0.48 0.48 38 1021.0
20260831010112 67 272 0.9 4.3 0.00 0.48 0.48 38 1020.9
20260831000606 69 278 2.6 12.2 0.00 0.48 0.48 39 1020.0
20260831000112 69 272 5.2 12.2 0.00 0.48 0.48 39 1020.0
20260830230606 68 219 0.0 2.6 0.00 0.48 0.48 50 1019.0
20260830230112 68 229 0.0 2.6 0.00 0.48 0.48 52 1019.0
20260830220112 64 262 0.0 0.9 0.02 0.48 0.48 72 1019.4
20260830210606 59 252 0.9 6.1 0.31 0.47 0.47 74 1019.7
20260830210112 58 312 1.7 6.1 0.30 0.46 0.46 73 1019.8
20260830200606 63 319 0.0 1.7 0.16 0.16 0.16 72 1019.2
20260830200112 63 319 0.0 2.6 0.16 0.16 0.16 69 1019.3
20260830190606 74 19 4.3 13.0 0.00 0.00 0.00 33 1020.1
20260830190111 76 18 4.3 12.2 0.00 0.00 0.00 27 1020.1
20260830180605 79 207 1.7 8.7 0.00 0.00 0.00 27 1020.4
20260830180112 79 196 2.6 8.7 0.00 0.00 0.00 27 1020.6
20260830170606 74 200 1.7 10.4 0.00 0.00 0.00 35 1021.3
20260830170111 73 212 1.7 10.4 0.00 0.00 0.00 36 1021.3
20260830160605 69 15 4.3 7.8 0.00 0.00 0.00 42 1021.2
20260830160112 69 15 2.6 8.7 0.00 0.00 0.00 44 1021.2
20260830150606 66 14 1.7 8.7 0.00 0.00 0.00 52 1021.0
20260830150111 65 15 1.7 8.7 0.00 0.00 0.00 53 1021.0
20260830140112 59 177 1.7 5.2 0.00 0.00 0.00 63 1020.9
20260830130605 56 151 0.9 5.2 0.00 0.00 0.00 67 1020.7
20260830130111 56 151 0.0 7.0 0.00 0.00 0.00 68 1020.6
20260830120605 57 149 4.3 10.4 0.00 0.00 0.00 65 1019.8
20260830120110 57 149 5.2 10.4 0.00 0.00 0.00 66 1019.9
20260830110606 56 135 1.7 5.2 0.00 0.00 0.00 68 1019.7
20260830110111 57 168 0.9 7.0 0.00 0.00 0.00 68 1019.8
20260830100605 57 163 0.9 5.2 0.00 0.00 0.00 65 1019.8
20260830090605 59 274 2.6 5.2 0.00 0.00 0.00 60 1020.6
20260830090111 59 271 1.7 4.3 0.00 0.00 0.00 60 1020.6
20260830080605 60 187 0.9 7.0 0.00 0.00 0.00 54 1019.5
20260830080111 60 178 1.7 7.0 0.00 0.00 0.00 54 1019.7
20260830070605 60 159 1.7 7.8 0.00 0.00 0.00 51 1019.8
20260830070111 60 133 3.5 7.8 0.00 0.00 0.00 51 1019.8